Time,TemperatureF,DewpointF,PressureIn,WindDirection,WindDirectionDegrees,WindSpeedMPH,WindSpeedGustMPH,Humidity,HourlyPrecipIn,Conditions,Clouds,dailyrainin,SoftwareType,DateUTC
2013-02-22 00:01:00,40.0,37.0,30.18,SE,141,0.0,-999.0,88,-99.99,,,-99.99,,2013-02-22 08:01:00,
2013-02-22 00:11:00,40.0,37.0,30.18,SE,141,0.0,-999.0,88,-99.99,,,-99.99,,2013-02-22 08:11:00,
2013-02-22 00:21:00,40.0,37.0,30.18,SE,141,0.0,-999.0,88,-99.99,,,-99.99,,2013-02-22 08:21:00,
2013-02-22 00:31:00,40.0,37.0,30.18,SE,141,0.0,-999.0,88,-99.99,,,-99.99,,2013-02-22 08:31:00,
2013-02-22 00:41:00,40.0,37.0,30.18,SE,141,0.0,-999.0,88,-99.99,,,-99.99,,2013-02-22 08:41:00,
2013-02-22 00:52:00,40.0,37.0,30.18,SE,141,0.0,-999.0,88,-99.99,,,-99.99,,2013-02-22 08:52:00,
2013-02-22 01:03:00,39.0,36.0,30.19,SE,141,0.0,-999.0,88,-99.99,,,-99.99,,2013-02-22 09:03:00,
2013-02-22 01:11:00,39.0,36.0,30.19,SE,141,0.0,-999.0,88,-99.99,,,-99.99,,2013-02-22 09:11:00,
2013-02-22 01:21:00,39.0,36.0,30.19,SE,141,0.0,-999.0,88,-99.99,,,-99.99,,2013-02-22 09:21:00,
2013-02-22 01:31:00,39.0,36.0,30.19,SE,141,0.0,-999.0,89,-99.99,,,-99.99,,2013-02-22 09:31:00,
2013-02-22 01:41:00,39.0,36.0,30.19,SE,141,0.0,-999.0,89,-99.99,,,-99.99,,2013-02-22 09:41:00,
2013-02-22 01:51:00,38.0,35.0,30.19,SE,141,0.0,-999.0,89,-99.99,,,-99.99,,2013-02-22 09:51:00,
2013-02-22 02:01:00,38.0,35.0,30.19,SE,141,0.0,-999.0,89,-99.99,,,-99.99,,2013-02-22 10:01:00,
2013-02-22 02:11:00,38.0,35.0,30.19,SE,141,0.0,-999.0,89,-99.99,,,-99.99,,2013-02-22 10:11:00,
2013-02-22 02:21:00,38.0,35.0,30.19,SE,141,0.0,-999.0,90,-99.99,,,-99.99,,2013-02-22 10:21:00,
2013-02-22 02:31:00,38.0,35.0,30.19,SE,141,0.0,-999.0,90,-99.99,,,-99.99,,2013-02-22 10:31:00,
2013-02-22 02:42:00,38.0,35.0,30.19,SE,141,0.0,-999.0,90,-99.99,,,-99.99,,2013-02-22 10:42:00,
2013-02-22 02:51:00,37.0,34.0,30.19,SE,141,0.0,-999.0,90,-99.99,,,-99.99,,2013-02-22 10:51:00,
2013-02-22 03:01:00,36.0,33.0,30.19,SE,141,0.0,-999.0,90,-99.99,,,-99.99,,2013-02-22 11:01:00,
2013-02-22 03:11:00,36.0,33.0,30.19,SE,141,0.0,-999.0,90,-99.99,,,-99.99,,2013-02-22 11:11:00,
2013-02-22 03:21:00,36.0,33.0,30.19,SE,141,0.0,-999.0,90,-99.99,,,-99.99,,2013-02-22 11:21:00,
2013-02-22 03:32:00,36.0,34.0,30.19,SE,141,0.0,-999.0,91,-99.99,,,-99.99,,2013-02-22 11:32:00,
2013-02-22 03:42:00,36.0,34.0,30.19,SE,141,0.0,-999.0,91,-99.99,,,-99.99,,2013-02-22 11:42:00,
2013-02-22 03:52:00,36.0,34.0,30.19,SE,141,0.0,-999.0,91,-99.99,,,-99.99,,2013-02-22 11:52:00,
2013-02-22 04:01:00,36.0,34.0,30.19,SE,141,0.0,-999.0,91,-99.99,,,-99.99,,2013-02-22 12:01:00,
2013-02-22 04:11:00,36.0,34.0,30.19,SE,141,0.0,-999.0,91,-99.99,,,-99.99,,2013-02-22 12:11:00,
2013-02-22 04:21:00,36.0,34.0,30.19,SE,141,0.0,-999.0,91,-99.99,,,-99.99,,2013-02-22 12:21:00,
2013-02-22 04:32:00,35.0,33.0,30.19,SE,141,0.0,-999.0,91,-99.99,,,-99.99,,2013-02-22 12:32:00,
2013-02-22 04:42:00,35.0,33.0,30.19,SE,141,0.0,-999.0,91,-99.99,,,-99.99,,2013-02-22 12:42:00,
2013-02-22 04:52:00,35.0,33.0,30.20,SE,141,0.0,-999.0,91,-99.99,,,-99.99,,2013-02-22 12:52:00,
2013-02-22 05:01:00,34.0,32.0,30.20,SE,141,0.0,-999.0,91,-99.99,,,-99.99,,2013-02-22 13:01:00,
2013-02-22 05:11:00,34.0,32.0,30.20,SE,141,0.0,-999.0,91,-99.99,,,-99.99,,2013-02-22 13:11:00,
2013-02-22 05:22:00,34.0,32.0,30.21,SE,141,0.0,-999.0,92,-99.99,,,-99.99,,2013-02-22 13:22:00,
2013-02-22 05:31:00,34.0,32.0,30.21,SE,141,0.0,-999.0,92,-99.99,,,-99.99,,2013-02-22 13:31:00,
2013-02-22 05:41:00,34.0,32.0,30.21,SE,141,0.0,-999.0,92,-99.99,,,-99.99,,2013-02-22 13:41:00,
2013-02-22 05:51:00,34.0,32.0,30.22,SE,141,0.0,-999.0,92,-99.99,,,-99.99,,2013-02-22 13:51:00,
2013-02-22 06:01:00,33.0,31.0,30.22,SE,141,0.0,-999.0,92,-99.99,,,-99.99,,2013-02-22 14:01:00,
2013-02-22 06:11:00,33.0,31.0,30.22,SE,141,0.0,-999.0,92,-99.99,,,-99.99,,2013-02-22 14:11:00,
2013-02-22 06:21:00,33.0,31.0,30.22,SE,141,0.0,-999.0,92,-99.99,,,-99.99,,2013-02-22 14:21:00,
2013-02-22 06:32:00,33.0,31.0,30.22,SE,141,0.0,-999.0,92,-99.99,,,-99.99,,2013-02-22 14:32:00,
2013-02-22 06:41:00,33.0,31.0,30.22,SE,141,0.0,-999.0,92,-99.99,,,-99.99,,2013-02-22 14:41:00,
2013-02-22 06:52:00,33.0,31.0,30.22,SE,141,0.0,-999.0,92,-99.99,,,-99.99,,2013-02-22 14:52:00,
2013-02-22 07:01:00,32.0,30.0,30.22,SE,141,0.0,-999.0,92,-99.99,,,-99.99,,2013-02-22 15:01:00,
2013-02-22 07:11:00,32.0,30.0,30.22,SE,141,0.0,-999.0,92,-99.99,,,-99.99,,2013-02-22 15:11:00,
2013-02-22 07:21:00,32.0,30.0,30.23,SE,141,0.0,-999.0,93,-99.99,,,-99.99,,2013-02-22 15:21:00,
2013-02-22 07:32:00,32.0,30.0,30.23,SE,141,0.0,-999.0,93,-99.99,,,-99.99,,2013-02-22 15:32:00,
2013-02-22 07:41:00,32.0,30.0,30.23,SE,141,0.0,-999.0,93,-99.99,,,-99.99,,2013-02-22 15:41:00,
2013-02-22 07:51:00,33.0,31.0,30.24,SE,141,0.0,-999.0,93,-99.99,,,-99.99,,2013-02-22 15:51:00,
2013-02-22 08:01:00,34.0,32.0,30.24,SE,141,0.0,-999.0,94,-99.99,,,-99.99,,2013-02-22 16:01:00,
2013-02-22 08:11:00,34.0,32.0,30.24,SE,141,0.0,-999.0,94,-99.99,,,-99.99,,2013-02-22 16:11:00,
2013-02-22 08:21:00,36.0,34.0,30.25,SE,141,0.0,-999.0,94,-99.99,,,-99.99,,2013-02-22 16:21:00,
2013-02-22 08:31:00,36.0,34.0,30.25,SE,141,0.0,-999.0,94,-99.99,,,-99.99,,2013-02-22 16:31:00,
2013-02-22 08:41:00,36.0,34.0,30.25,SE,141,0.0,-999.0,94,-99.99,,,-99.99,,2013-02-22 16:41:00,
2013-02-22 08:52:00,41.0,38.0,30.26,SE,141,0.0,-999.0,90,-99.99,,,-99.99,,2013-02-22 16:52:00,
2013-02-22 09:01:00,43.0,39.0,30.26,SE,141,0.0,-999.0,85,-99.99,,,-99.99,,2013-02-22 17:01:00,
2013-02-22 09:11:00,43.0,39.0,30.26,SE,141,0.0,-999.0,85,-99.99,,,-99.99,,2013-02-22 17:11:00,
2013-02-22 09:21:00,44.0,39.0,30.26,SE,141,0.0,-999.0,82,-99.99,,,-99.99,,2013-02-22 17:21:00,
2013-02-22 09:31:00,45.0,39.0,30.26,SE,141,0.0,-999.0,79,-99.99,,,-99.99,,2013-02-22 17:31:00,
2013-02-22 09:41:00,45.0,39.0,30.26,SE,141,0.0,-999.0,79,-99.99,,,-99.99,,2013-02-22 17:41:00,
2013-02-22 09:52:00,45.0,39.0,30.26,SE,141,0.0,-999.0,79,-99.99,,,-99.99,,2013-02-22 17:52:00,
2013-02-22 10:01:00,49.0,41.0,30.26,SE,136,0.0,-999.0,74,-99.99,,,-99.99,,2013-02-22 18:01:00,
2013-02-22 10:11:00,49.0,41.0,30.26,SE,136,0.0,-999.0,74,-99.99,,,-99.99,,2013-02-22 18:11:00,
2013-02-22 10:22:00,50.0,41.0,30.26,SE,125,0.0,-999.0,70,-99.99,,,-99.99,,2013-02-22 18:22:00,
2013-02-22 10:32:00,52.0,41.0,30.26,ENE,78,0.0,-999.0,67,-99.99,,,-99.99,,2013-02-22 18:32:00,
2013-02-22 10:42:00,52.0,41.0,30.26,ENE,78,0.0,-999.0,67,-99.99,,,-99.99,,2013-02-22 18:42:00,
2013-02-22 10:51:00,53.0,41.0,30.26,NNW,333,1.0,-999.0,63,-99.99,,,-99.99,,2013-02-22 18:51:00,
2013-02-22 11:01:00,54.0,41.0,30.26,NNW,331,1.0,-999.0,61,-99.99,,,-99.99,,2013-02-22 19:01:00,
2013-02-22 11:11:00,55.0,42.0,30.26,NNW,334,0.0,-999.0,61,-99.99,,,-99.99,,2013-02-22 19:11:00,
2013-02-22 11:21:00,55.0,42.0,30.26,NNW,334,0.0,-999.0,61,-99.99,,,-99.99,,2013-02-22 19:21:00,
2013-02-22 11:31:00,55.0,40.0,30.26,NNW,335,0.0,-999.0,57,-99.99,,,-99.99,,2013-02-22 19:31:00,
2013-02-22 11:41:00,55.0,40.0,30.26,NNW,335,0.0,-999.0,57,-99.99,,,-99.99,,2013-02-22 19:41:00,
2013-02-22 11:52:00,56.0,40.0,30.26,NNW,336,1.0,-999.0,55,-99.99,,,-99.99,,2013-02-22 19:52:00,
2013-02-22 12:01:00,57.0,40.0,30.27,NNW,329,1.0,-999.0,52,-99.99,,,-99.99,,2013-02-22 20:01:00,
2013-02-22 12:11:00,57.0,40.0,30.27,NNW,329,1.0,-999.0,52,-99.99,,,-99.99,,2013-02-22 20:11:00,
2013-02-22 12:21:00,58.0,39.0,30.27,NNW,337,1.0,-999.0,50,-99.99,,,-99.99,,2013-02-22 20:21:00,
2013-02-22 12:31:00,59.0,40.0,30.25,SE,136,2.0,-999.0,49,-99.99,,,-99.99,,2013-02-22 20:31:00,
2013-02-22 12:41:00,59.0,40.0,30.25,SE,136,2.0,-999.0,49,-99.99,,,-99.99,,2013-02-22 20:41:00,
2013-02-22 12:52:00,60.0,41.0,30.24,SE,135,2.0,-999.0,50,-99.99,,,-99.99,,2013-02-22 20:52:00,
2013-02-22 13:01:00,60.0,40.0,30.23,SSE,149,3.0,-999.0,47,-99.99,,,-99.99,,2013-02-22 21:01:00,
2013-02-22 13:11:00,60.0,40.0,30.23,SSE,149,3.0,-999.0,47,-99.99,,,-99.99,,2013-02-22 21:11:00,
2013-02-22 13:21:00,61.0,38.0,30.23,SE,131,3.0,-999.0,43,-99.99,,,-99.99,,2013-02-22 21:21:00,
2013-02-22 13:31:00,62.0,37.0,30.22,SE,125,3.0,-999.0,40,-99.99,,,-99.99,,2013-02-22 21:31:00,
2013-02-22 13:41:00,62.0,37.0,30.22,SE,125,3.0,-999.0,40,-99.99,,,-99.99,,2013-02-22 21:41:00,
2013-02-22 13:51:00,62.0,39.0,30.21,SE,145,3.0,-999.0,43,-99.99,,,-99.99,,2013-02-22 21:51:00,
2013-02-22 14:01:00,62.0,40.0,30.20,SW,235,3.0,-999.0,44,-99.99,,,-99.99,,2013-02-22 22:01:00,
2013-02-22 14:11:00,62.0,40.0,30.20,SW,235,3.0,-999.0,44,-99.99,,,-99.99,,2013-02-22 22:11:00,
2013-02-22 14:21:00,61.0,40.0,30.20,South,171,4.0,-999.0,45,-99.99,,,-99.99,,2013-02-22 22:21:00,
2013-02-22 14:31:00,61.0,40.0,30.19,South,171,3.0,-999.0,45,-99.99,,,-99.99,,2013-02-22 22:31:00,
2013-02-22 14:41:00,61.0,40.0,30.19,South,171,3.0,-999.0,45,-99.99,,,-99.99,,2013-02-22 22:41:00,
2013-02-22 14:51:00,61.0,42.0,30.19,SSE,167,4.0,-999.0,49,-99.99,,,-99.99,,2013-02-22 22:51:00,
2013-02-22 15:01:00,61.0,43.0,30.19,SE,140,3.0,-999.0,52,-99.99,,,-99.99,,2013-02-22 23:01:00,
2013-02-22 15:11:00,61.0,43.0,30.19,SE,140,3.0,-999.0,52,-99.99,,,-99.99,,2013-02-22 23:11:00,
2013-02-22 15:21:00,62.0,45.0,30.19,SE,129,3.0,-999.0,53,-99.99,,,-99.99,,2013-02-22 23:21:00,
2013-02-22 15:31:00,62.0,45.0,30.18,SE,134,3.0,-999.0,53,-99.99,,,-99.99,,2013-02-22 23:31:00,
2013-02-22 15:41:00,62.0,45.0,30.18,SE,134,3.0,-999.0,53,-99.99,,,-99.99,,2013-02-22 23:41:00,
2013-02-22 15:52:00,62.0,45.0,30.18,SE,144,4.0,-999.0,54,-99.99,,,-99.99,,2013-02-22 23:52:00,
2013-02-22 16:01:00,62.0,46.0,30.18,SSE,153,3.0,-999.0,55,-99.99,,,-99.99,,2013-02-23 00:01:00,
2013-02-22 16:11:00,62.0,46.0,30.18,SSE,153,3.0,-999.0,55,-99.99,,,-99.99,,2013-02-23 00:11:00,
2013-02-22 16:21:00,61.0,46.0,30.18,SE,135,3.0,-999.0,57,-99.99,,,-99.99,,2013-02-23 00:21:00,
2013-02-22 16:31:00,60.0,46.0,30.18,SE,142,3.0,-999.0,59,-99.99,,,-99.99,,2013-02-23 00:31:00,
2013-02-22 16:41:00,60.0,46.0,30.18,SE,142,3.0,-999.0,59,-99.99,,,-99.99,,2013-02-23 00:41:00,
2013-02-22 16:51:00,59.0,46.0,30.17,SE,125,4.0,-999.0,61,-99.99,,,-99.99,,2013-02-23 00:51:00,
2013-02-22 17:01:00,58.0,45.0,30.17,SE,146,4.0,-999.0,63,-99.99,,,-99.99,,2013-02-23 01:01:00,
2013-02-22 17:11:00,58.0,45.0,30.17,SE,146,4.0,-999.0,63,-99.99,,,-99.99,,2013-02-23 01:11:00,
2013-02-22 17:21:00,57.0,46.0,30.16,SE,142,4.0,-999.0,66,-99.99,,,-99.99,,2013-02-23 01:21:00,
2013-02-22 17:31:00,56.0,46.0,30.16,SSE,150,5.0,-999.0,68,-99.99,,,-99.99,,2013-02-23 01:31:00,
2013-02-22 17:41:00,56.0,46.0,30.16,SSE,150,5.0,-999.0,68,-99.99,,,-99.99,,2013-02-23 01:41:00,
2013-02-22 17:51:00,55.0,46.0,30.17,SSE,152,3.0,-999.0,71,-99.99,,,-99.99,,2013-02-23 01:51:00,
2013-02-22 18:01:00,54.0,45.0,30.17,SSE,157,3.0,-999.0,72,-99.99,,,-99.99,,2013-02-23 02:01:00,
2013-02-22 18:11:00,53.0,45.0,30.17,SE,126,3.0,-999.0,74,-99.99,,,-99.99,,2013-02-23 02:11:00,
2013-02-22 18:21:00,53.0,45.0,30.17,SE,126,3.0,-999.0,74,-99.99,,,-99.99,,2013-02-23 02:21:00,
2013-02-22 18:31:00,52.0,44.0,30.17,SE,133,2.0,-999.0,75,-99.99,,,-99.99,,2013-02-23 02:31:00,
2013-02-22 18:41:00,52.0,44.0,30.17,SE,133,2.0,-999.0,75,-99.99,,,-99.99,,2013-02-23 02:41:00,
2013-02-22 18:52:00,52.0,45.0,30.18,SE,130,2.0,-999.0,76,-99.99,,,-99.99,,2013-02-23 02:52:00,
2013-02-22 19:01:00,51.0,44.0,30.19,SSE,148,2.0,-999.0,77,-99.99,,,-99.99,,2013-02-23 03:01:00,
2013-02-22 19:11:00,51.0,44.0,30.19,SSE,148,2.0,-999.0,77,-99.99,,,-99.99,,2013-02-23 03:11:00,
2013-02-22 19:21:00,51.0,44.0,30.19,SE,142,1.0,-999.0,77,-99.99,,,-99.99,,2013-02-23 03:21:00,
2013-02-22 19:31:00,51.0,44.0,30.20,SE,142,0.0,-999.0,78,-99.99,,,-99.99,,2013-02-23 03:31:00,
2013-02-22 19:41:00,51.0,44.0,30.20,SE,142,0.0,-999.0,78,-99.99,,,-99.99,,2013-02-23 03:41:00,
2013-02-22 19:51:00,50.0,44.0,30.20,SE,142,0.0,-999.0,79,-99.99,,,-99.99,,2013-02-23 03:51:00,
2013-02-22 20:01:00,50.0,44.0,30.19,SE,142,1.0,-999.0,80,-99.99,,,-99.99,,2013-02-23 04:01:00,
2013-02-22 20:11:00,50.0,44.0,30.19,SE,142,1.0,-999.0,80,-99.99,,,-99.99,,2013-02-23 04:11:00,
2013-02-22 20:21:00,49.0,43.0,30.19,SE,144,1.0,-999.0,80,-99.99,,,-99.99,,2013-02-23 04:21:00,
2013-02-22 20:31:00,49.0,43.0,30.19,SE,133,1.0,-999.0,80,-99.99,,,-99.99,,2013-02-23 04:31:00,
2013-02-22 20:41:00,49.0,43.0,30.19,SE,133,1.0,-999.0,80,-99.99,,,-99.99,,2013-02-23 04:41:00,
2013-02-22 20:51:00,48.0,42.0,30.20,SE,133,1.0,-999.0,81,-99.99,,,-99.99,,2013-02-23 04:51:00,
2013-02-22 21:01:00,48.0,43.0,30.21,SE,133,0.0,-999.0,82,-99.99,,,-99.99,,2013-02-23 05:01:00,
2013-02-22 21:11:00,48.0,43.0,30.21,SE,133,0.0,-999.0,82,-99.99,,,-99.99,,2013-02-23 05:11:00,
2013-02-22 21:22:00,47.0,42.0,30.22,SE,133,0.0,-999.0,83,-99.99,,,-99.99,,2013-02-23 05:22:00,
2013-02-22 21:32:00,47.0,42.0,30.22,SE,133,0.0,-999.0,84,-99.99,,,-99.99,,2013-02-23 05:32:00,
2013-02-22 21:41:00,47.0,42.0,30.22,SE,133,0.0,-999.0,84,-99.99,,,-99.99,,2013-02-23 05:41:00,
2013-02-22 21:52:00,46.0,42.0,30.23,SE,133,0.0,-999.0,85,-99.99,,,-99.99,,2013-02-23 05:52:00,
2013-02-22 22:01:00,46.0,42.0,30.23,SE,133,0.0,-999.0,86,-99.99,,,-99.99,,2013-02-23 06:01:00,
2013-02-22 22:11:00,46.0,42.0,30.23,SE,133,0.0,-999.0,86,-99.99,,,-99.99,,2013-02-23 06:11:00,
2013-02-22 22:22:00,46.0,42.0,30.23,SE,133,0.0,-999.0,87,-99.99,,,-99.99,,2013-02-23 06:22:00,
2013-02-22 22:31:00,46.0,42.0,30.24,SE,133,0.0,-999.0,87,-99.99,,,-99.99,,2013-02-23 06:31:00,
2013-02-22 22:41:00,46.0,42.0,30.24,SE,133,0.0,-999.0,87,-99.99,,,-99.99,,2013-02-23 06:41:00,
2013-02-22 22:51:00,46.0,42.0,30.23,SE,133,0.0,-999.0,87,-99.99,,,-99.99,,2013-02-23 06:51:00,
2013-02-22 23:01:00,46.0,42.0,30.23,SE,133,0.0,-999.0,87,-99.99,,,-99.99,,2013-02-23 07:01:00,
2013-02-22 23:11:00,46.0,42.0,30.23,SE,133,0.0,-999.0,87,-99.99,,,-99.99,,2013-02-23 07:11:00,
2013-02-22 23:21:00,45.0,41.0,30.23,SE,133,0.0,-999.0,87,-99.99,,,-99.99,,2013-02-23 07:21:00,
2013-02-22 23:31:00,45.0,41.0,30.23,SE,133,0.0,-999.0,87,-99.99,,,-99.99,,2013-02-23 07:31:00,
2013-02-22 23:41:00,45.0,41.0,30.23,SE,133,0.0,-999.0,87,-99.99,,,-99.99,,2013-02-23 07:41:00,
2013-02-22 23:51:00,45.0,41.0,30.22,SE,133,0.0,-999.0,87,-99.99,,,-99.99,,2013-02-23 07:51:00,